Dewpoint
66 66 65 66 66 66 66 66 66 66 66 66 66 66 65 65 65 65 65 63 64 64 64 63 62 62 61 62 61 60 49 49
63 62 61 61 65 66 66 66 66 66 66 65 64 64 64 64 64 65 65 64 63 64 64 63 61 59 59 59 59 58 48 47
61 60 61 60 62 65 66 66 66 65 64 63 59 53 54 55 61 63 64 64 63 63 63 61 60 58 57 56 55 46 46 46
59 57 59 60 63 63 62 60 57 59 58 56 52 56 54 53 59 63 63 62 61 60 58 57 55 47 45 50 44 46 44 44
56 56 57 60 62 63 61 59 60 57 59 56 57 56 56 55 56 56 56 57 50 50 49 48 49 47 46 47 45 43 41 39
54 54 54 59 61 59 57 54 54 54 55 57 57 55 56 56 55 57 56 54 53 51 50 51 50 48 47 47 46 42 40 37
56 57 57 57 58 60 59 57 55 54 56 56 55 54 56 56 56 55 54 53 51 50 50 48 48 47 46 45 43 41 38 33
57 56 56 59 56 57 58 57 55 56 54 57 59 56 58 57 57 54 52 51 51 50 49 48 47 46 45 43 39 36 36 38
53 56 56 57 58 57 54 55 54 54 55 62 61 61 60 59 56 54 52 52 53 52 50 48 45 43 42 39 37 38 36 38
55 54 57 61 60 57 52 54 55 53 58 61 63 61 60 59 56 54 53 53 51 50 48 46 45 42 40 37 37 37 38 38
57 57 57 62 62 58 57 57 55 55 60 60 62 60 59 57 55 54 55 52 51 49 47 47 42 39 35 37 38 36 36 31
55 57 60 62 62 59 54 52 54 59 61 61 61 59 58 57 54 55 53 51 49 47 47 42 41 39 26 31 38 37 36 36
56 58 60 60 61 58 54 52 55 60 62 62 61 59 58 57 54 54 52 50 49 49 45 43 40 39 38 39 39 40 39 35
58 57 58 60 59 59 54 55 54 57 60 61 61 60 57 56 54 52 51 48 49 47 45 41 39 41 39 38 38 36 37 37
57 57 59 60 59 58 55 57 59 59 60 60 59 59 56 54 54 51 50 48 46 46 43 39 39 41 41 38 33 30 32 34
56 57 59 59 60 58 57 54 53 56 58 57 56 57 55 52 52 51 50 47 45 43 38 41 41 39 42 38 38 33 28 29
57 57 59 59 60 60 59 58 56 57 57 55 55 55 53 51 51 50 49 45 44 41 43 42 42 43 39 36 37 36 37 32
57 57 58 60 61 61 61 61 59 59 56 53 52 52 51 50 48 48 47 43 43 43 44 44 42 40 37 35 33 33 30 29
58 57 56 60 61 61 61 61 61 58 57 54 51 51 50 49 47 46 43 42 42 44 44 43 41 40 38 35 35 33 33 32
59 58 58 60 61 59 60 60 60 59 59 56 52 50 49 47 46 44 41 41 43 43 42 41 40 38 39 37 34 36 35 32
Lifted_Index
-1 -0 0 0 -0 -1 -1 -1 -1 -1 -1 -1 -1 -0 -0 -1 -1 -2 -2 -1 -1 -0 0 1 2 2 3 3 4 4 4 4
0 1 2 2 1 -0 -1 -1 -1 -1 -0 0 1 1 1 0 -1 -1 -1 -1 -0 -0 1 2 3 3 4 4 5 5 4 4
1 2 4 3 2 1 -0 -0 0 1 1 2 2 2 1 1 0 -1 -1 -0 1 1 2 3 4 4 5 5 6 5 5 5
2 3 5 4 3 2 1 1 2 2 3 3 3 2 1 1 1 0 0 1 2 2 3 3 4 5 5 6 6 6 6 6
3 5 6 5 3 2 2 3 3 3 3 3 2 1 1 0 0 1 1 2 2 3 3 4 4 4 5 6 6 7 7 7
4 5 6 5 4 3 3 4 3 3 2 2 1 0 0 0 0 1 2 2 2 3 3 3 3 4 5 6 7 8 8 9
5 5 5 5 5 4 4 3 3 2 1 0 -0 -0 -0 -0 0 1 2 2 2 3 3 3 4 5 6 7 8 9 10 10
6 5 5 4 4 4 3 3 2 1 1 -1 -1 -1 -1 -0 0 1 1 2 2 3 3 3 4 6 7 8 10 10 11 11
4 4 3 2 2 2 2 2 1 1 -0 -2 -2 -2 -1 -0 0 1 1 2 2 3 3 4 6 7 8 10 11 11 11 11
2 2 1 0 -0 0 1 1 1 0 -1 -2 -2 -2 -1 -0 1 1 1 2 2 2 3 5 6 8 9 10 11 11 12 11
1 1 -0 -1 -2 -1 0 0 0 -1 -2 -3 -2 -1 -0 0 1 1 1 1 2 2 4 6 7 8 9 10 11 11 11 11
-0 -1 -1 -2 -2 -2 -1 0 -1 -2 -3 -3 -2 -1 -0 0 1 1 1 1 2 3 5 7 7 8 8 9 9 10 11 11
-2 -2 -3 -3 -3 -2 -1 -1 -1 -3 -3 -3 -2 -1 -0 0 1 1 1 1 2 4 6 7 7 7 7 7 8 9 10 10
-3 -3 -3 -4 -4 -3 -2 -1 -2 -3 -3 -3 -2 -1 -0 0 1 1 1 1 2 5 6 7 7 6 5 5 5 7 9 9
-3 -3 -4 -4 -4 -4 -3 -2 -2 -2 -2 -2 -1 -1 -0 1 1 1 1 2 4 6 7 7 6 5 4 4 5 6 7 8
-3 -4 -4 -5 -4 -4 -3 -2 -2 -2 -2 -1 -1 -1 0 1 1 1 2 3 5 6 6 6 5 4 4 5 6 7 7 7
-3 -3 -4 -5 -5 -4 -4 -3 -3 -2 -1 -1 -1 -0 0 1 1 2 3 4 5 6 6 6 5 4 5 7 8 8 8 7
-3 -3 -4 -4 -4 -4 -4 -3 -3 -2 -1 -1 -1 -0 0 1 2 3 4 5 6 6 7 6 5 5 7 8 8 8 9 9
-4 -4 -3 -4 -3 -3 -3 -3 -2 -2 -1 -1 -1 -1 -0 1 2 3 4 5 6 7 7 6 6 7 8 9 9 9 9 9
-4 -4 -4 -3 -3 -2 -2 -2 -2 -1 -1 -1 -1 -1 -1 0 2 3 4 5 7 7 7 7 8 9 9 9 9 9 9 10